Location: ??????
(38.3184°N, 23.6932°E)
Time: 01:29:57
(UTC+00:00)

Landsat 5 - Pass Details

Date: 16 October 2021
Orbit: 528 x 652 km, 98.2° (Epoch: 04 December)

Event Time Altitude Azimuth Distance (km) Brightness Sun altitude
Rises 16:11:57 0° 18° (NNE) 2,885 6.7 -5.9°
Reaches altitude 10° 16:14:10 10° 23° (NNE) 1,994 5.9 -6.3°
Maximum altitude 16:18:25 52° 100° (E) 787 3.8 -7.2°
Drops below altitude 10° 16:22:45 10° 178° (S) 2,034 6.3 -8.0°
Sets 16:25:01 0° 183° (S) 2,948 7.1 -8.4°
